Regional Weather Roundup
Issued by NWS Grand Forks, ND

Home | Current Version | Previous Version | Graphics & Text | Print | Product List | Glossary On
Versions: 1 2 3 4 5 6 7 8 9 10 11 12 13 14 15 16 17 18 19 20 21 22 23 24 25 26 27 28 29 30 31 32 33 34 35 36 37 38 39 40 41 42 43 44 45 46 47 48 49 50
000
ASUS43 KFGF 251531
RWRFGF
PRAIRIE TO PINES  WEATHER ROUNDUP
NATIONAL WEATHER SERVICE EASTERN NORTH DAKOTA/GRAND FORKS ND
900 AM CST TUE NOV 25 2014

 **SATELLITE DATA USED TO AUGMENT SKY COVER AT AUTOMATED STATIONS**
 *****  WEATHER ACROSS EASTERN NORTH DAKOTA  *****

CITY           SKY/WX    TMP DP  RH WIND       PRES   REMARKS
GRAND FORKS    CLOUDY    15  10  80 S3        29.95S
GRAND FRKS AFB CLOUDY    17  14  88 CALM      29.94S
GRAND FRKS NWS   N/A     18 N/A N/A S2          N/A
DEVILS LAKE    CLOUDY    21  12  68 SE5       29.87S WCI  15
FARGO          CLOUDY    20  13  74 S6        29.97R WCI  12
WAHPETON ARPT  CLOUDY    19  12  73 S6        29.99R WCI  11
$$

 ***** WEATHER ACROSS CENTRAL AND WESTERN NORTH DAKOTA  *****

CITY           SKY/WX    TMP DP  RH WIND       PRES   REMARKS
BISMARCK       CLOUDY    26  22  84 SW3       29.85R
MINOT          LGT SNOW  26  22  84 SE10      29.78F WCI  16
JAMESTOWN      CLOUDY    27  21  78 E3        29.88S
MINOT AFB      MOCLDY    27  25  93 SE10      29.78F WCI  17
GARRISON         N/A     29  26  89 S9        29.79F WCI  20
WILLISTON      SNOW      28  25  88 S7        29.71F VSB 1/2 WCI  21
DICKINSON      LGT SNOW  30  28  92 S9        29.71F FOG     WCI  22
HETTINGER      LGT SNOW  29  27  92 S7        29.78F VSB 1   WCI  22
$$

 *****  OTHER AIRPORT OBSERVATIONS IN OUR AREA  *****

CITY           SKY/WX    TMP DP  RH WIND       PRES   REMARKS
WALHALLA         N/A     14  10  85 CALM      29.96S
GRAFTON AIRPOR CLOUDY    16  12  86 N7        29.97R WCI   6
VALLEY CITY AR CLOUDY    25  23  93 SE5       29.91S WCI  19
CANDO          CLOUDY    19  18  93 E6        29.87F WCI  11
CAVALIER APRT  CLOUDY    14   9  79 N7        29.98R WCI   4
GWINNER        CLOUDY    27  19  74 SW7       29.94F WCI  19
SHEYENNE NWR     N/A     23  16  73 SW3       29.95S
ROLLA          CLOUDY    18  18 100 E9        29.85S FOG     WCI   6
 ***** THE ABOVE OBSERVATIONS ARE NON NWS ARE NOT QUALITY
       CONTROLLED AND MAY MIS-REPORT RAIN FOR SNOW...
$$

  *****  WEATHER ACROSS NORTHERN MINNESOTA  *****

CITY           SKY/WX    TMP DP  RH WIND       PRES   REMARKS
FLAG ISLAND    CLOUDY     5   0  78 CALM      29.93R
WARROAD        MOCLDY     9   3  78 CALM      29.93S
ROSEAU         CLOUDY    12   7  79 SW8       29.94S WCI   1
HALLOCK        CLOUDY    10   7  85 CALM      29.97R
THF RVR FALLS  CLOUDY    12   9  85 S5        29.95S WCI   4
BAUDETTE       MOCLDY     1  -4  79 CALM      29.93R
WASKISH        PTCLDY     7   3  85 CALM      29.95R
CROOKSTON      PTCLDY    16  10  79 S7        29.97S WCI   6
STEPHEN NDAWN    N/A     14  10  85 N3          N/A
GREENBUSH NDAW   N/A     10   9  92 SW6         N/A  WCI   1
$$
  *****  WEATHER ACROSS CENTRAL AND WEST MINNESOTA  *****

CITY           SKY/WX    TMP DP  RH WIND       PRES   REMARKS
FOSSTON        CLOUDY    12   7  79 S5        29.94F WCI   4
BEMIDJI        CLOUDY    11   6  80 CALM      29.94R
PARK RAPIDS    CLOUDY    11   7  84 CALM      29.95R
ELBOW LAKE       N/A     15   9  77 SE7       29.98R WCI   5
WADENA         CLOUDY    14   7  73 CALM      29.96R
DETROIT LAKES  CLOUDY    18  12  79 S5        29.95S WCI  11
MOORHEAD       CLOUDY    19  16  86 S6        29.98R WCI  11
FERGUS FALLS   CLOUDY    16   7  67 S7        30.01R WCI   6
MORRIS MN        N/A     16   9  73 SE7       29.98S WCI   6
STAPLES        CLOUDY    12   9  85 CALM      29.98R
$$
  *****  WEATHER ELSEWHERE ACROSS MINNESOTA  *****

CITY           SKY/WX    TMP DP  RH WIND       PRES   REMARKS
DULUTH         MOSUNNY   10   5  80 NW10      29.92R WCI  -4
INTRNTL FALLS  CLOUDY     2  -3  80 W5        29.94R WCI  -8
ELY            LGT SNOW   7   5  92 CALM      29.92R
CLOQUET        SUNNY     10   7  85 NW5       29.95R WCI   2
WHEATON        CLOUDY    18  10  73 SE5       30.00R WCI  11
BRAINERD       CLOUDY     8   5  87 SW3       29.98R
HIBBING        SUNNY      7   2  80 CALM      29.94R
ALEXANDRIA     CLOUDY    14   6  70 SW6       29.98R WCI   5
SAINT CLOUD    CLOUDY    12   6  77 CALM      30.00F
MINNEAPOLIS    SUNNY     14   7  73 W3        30.05R
$$

  *****  WEATHER ACROSS SOUTH DAKOTA  *****

CITY           SKY/WX    TMP DP  RH WIND       PRES   REMARKS
SIOUX FALLS    PTSUNNY   20  11  68 S6        30.02R WCI  12
BROOKINGS      NOT AVBL
WATERTOWN      CLOUDY    20  13  74 S7        29.95R WCI  11
HURON          MOSUNNY   24  18  77 S7        29.97S WCI  16
SISSETON         N/A     26  16  65 W7        29.95S WCI  18
ABERDEEN       CLOUDY    25  20  81 SE8       29.94F WCI  16
MITCHELL       MOSUNNY   24  18  77 S6        30.00S WCI  17
PIERRE         CLOUDY    25  22  88 S3        29.90F
MOBRIDGE       CLOUDY    26  23  88 S8        29.86F WCI  18
RAPID CITY     CLOUDY    29  21  72 SW7       29.83S WCI  22
$$

  *****  SOME WEATHER IN NEARBY STATES *****

CITY           SKY/WX    TMP DP  RH WIND       PRES   REMARKS
GLASGOW MT     CLOUDY    33  31  92 W13       29.70R WCI  24
GREAT FALLS MT LGT RAIN  37  31  78 NW12      29.87S
CHEYENNE WY    CLOUDY    30  14  51 W30G38    29.89S WCI  15
SCOTTSBLUFF NE CLOUDY    29  21  72 S6        29.91F WCI  23
OMAHA NE       MOSUNNY   24  13  62 S6        30.15S WCI  17
DES MOINES IA  SUNNY     23  11  60 NW9       30.13S WCI  13
DAVENPORT IA   CLOUDY    18  11  74 W10       30.12R WCI   6
CHICAGO IL     CLOUDY    22  16  78 W10       30.05R WCI  11
EAU CLAIRE WI  CLOUDY    16   9  74 NW6       30.02R WCI   7
LA CROSSE WI   CLOUDY    19  12  74 W8        30.05R WCI   9
$$

  *****  SOME NATIONAL WEATHER *****

CITY           SKY/WX    TMP DP  RH WIND       PRES   REMARKS
LA GUARDIA NY  CLOUDY    56  32  40 NW14      29.99R
RALEIGH NC     CLOUDY    61  57  87 NW3       30.07R
ATLANTA GA     PTSUNNY   51  31  46 NW8       30.09S
NEW ORLEANS LA PTSUNNY   55  35  47 NE15      30.18R
OKLAHOMA CITY  MOSUNNY   37  26  64 NW8       30.30R
ALBUQUERQUE NM MOSUNNY   23  12  62 SE5       30.42F WCI  17
SALT LAKE CITY MOCLDY    36  19  50 SE9       30.35S
LOS ANGELES CA CLEAR     59  15  18 NE9       30.37R
BOISE ID       CLOUDY    40  36  86 SE5       30.25S
SEATTLE WA     LGT RAIN  50  48  93 NE10      30.18R FOG
$$

*** WEATHER ACROSS MANITOBA...SASKATCHEWAN AND ONTARIO ***
                ***ONTARIO***

CITY           SKY/WX    TMP DP  RH WIND       PRES   REMARKS
GERALDTON      FLURRIES   9   5  85 NW6       29.83R WCI  -1
THUNDER BAY    MOSUNNY    9   1  72 NW12      29.96R WCI  -6
SIOUX LOOKOUT  CLOUDY     5   1  85 W7        29.88R WCI  -7
TORONTO        CLOUDY    37  27  65 SW18G31   29.84S
BIG TROUT LK   CLEAR     -8 -11  84 NW8       29.85R WCI -23
PICKLE LAKE    FLURRIES  -2  -8  78 W7        29.82R WCI -16
DRYDEN         CLOUDY     5   3  92 W7        29.89R WCI  -7
KENORA         MOCLDY     5   0  78 W5        29.90S WCI  -4
$$
                *** MANITOBA***

CITY           SKY/WX    TMP DP  RH WIND       PRES   REMARKS
BRANDON        CLOUDY    12   9  85 E13       29.91S WCI  -3
DAUPHIN        LGT SNOW  10   7  85 NE9       29.98R WCI  -2
ISLAND LAKE    CLEAR    -15 -22  70 N6        29.98R WCI -29
PILOT MOUND      N/A     14  12  92 E7          N/A  WCI   4
THE PAS        PTCLDY   -11 -17  77 N8        30.08R WCI -28
THOMPSON       CLEAR    -27 -33  75 W5        30.04R WCI -42
WINNIPEG       FLURRIES   9   3  78 N9        29.99R WCI  -5
LYNN LAKE      CLEAR    -27 -33  75 NW6       30.04R WCI -44
CHURCHILL      PTCLDY   -15 -20  76 NW20G25   29.94R BLWGSNOWWCI -41
GILLAM         CLEAR    -24 -31  69 NW13      29.97S WCI -48
$$
                ***SASKATCHEWAN***

CITY           SKY/WX    TMP DP  RH WIND       PRES   REMARKS
ESTEVAN        LGT SNOW  25  21  86 E13       29.72  WCI  13
KINDERSLEY     FLURRIES  21  18  86 NE15      29.78R WCI   8
LLOYDMINSTER   LGT SNOW   9   7  92 NE7       29.92R DRFTSNOWWCI  -3
PRINCE ALBERT  FLURRIES   7   3  85 NE9       29.98R WCI  -7
REGINA         SNOWSHWR  23  19  86 E15       29.72R WCI  10
YORKTON        LGT SNOW  14  12  92 NE10      29.86R WCI   1
N. BATTLEFORD  FLURRIES  14  10  85 NE12      29.92R WCI   0
LA RONGE       PTCLDY   -13 -17  84 N5        30.09R WCI -25
SASKATOON      FLURRIES  12   7  79 NE17      29.90  WCI  -5
SWIFT CURRENT  CLOUDY    23  21  93 NW10      29.68R WCI  12
$$
NOTE: THESE ARE AUTOMATED STATIONS WITH LIMITED QUALITY CONTROL
      "FAIR" INDICATES FEW OR NO CLOUDS BELOW 12,000 FEET WITH NO
      SIGNIFICANT WEATHER AND/OR OBSTRUCTIONS TO VISIBILITY.
      SKY/WX - SKY CONDITION AND SIGNIFICANT WEATHER.
      TMP - AIR TEMPERATURE.    DP   - DEWPOINT TEMPERATURE.
      RH  - RELATIVE HUMIDITY.  PRES - PRESSURE.
      HX  - HEAT INDEX.         WCI  - WIND CHILL INDEX.
$


USA.gov is the U.S. government's official web portal to all federal, state and local government web resources and services.